Location: Bush Observatory
(40.2653°N, 94.3194°W)
Time: 23:27:09
(UTC-05:00)

JAS-2 - Visible Passes

Search period start: 22 October 2014 00:00
Search period end: 01 November 2014 00:00
Orbit: 801 x 1321 km, 98.5° (Epoch: 22 October)

Date Brightness Start Highest point End Pass type
(mag) Time Alt. Az. Time Alt. Az. Time Alt. Az.
22 Oct 12.8 05:13:21 10° NE 05:17:43 16° E 05:22:05 10° ESE visible
22 Oct 10.3 06:55:50 10° NNE 07:03:36 83° ESE 07:11:28 10° SSW visible
22 Oct 11.2 18:53:04 10° SSW 18:58:24 38° W 19:04:24 10° NNW visible
23 Oct 11.7 06:01:25 10° NNE 06:08:30 37° E 06:15:34 10° SSE visible
23 Oct 12.7 19:46:06 10° WSW 19:49:14 15° W 19:52:34 10° NW visible
24 Oct 12.9 05:08:51 10° NE 05:12:51 15° E 05:16:51 10° ESE visible
24 Oct 10.4 06:51:01 10° NNE 06:58:51 79° ESE 07:06:39 10° S visible
24 Oct 11.1 18:47:57 10° SSW 18:53:28 42° W 18:59:42 10° NNW visible
25 Oct 11.8 05:56:41 10° NNE 06:03:41 35° E 06:10:37 10° SSE visible
25 Oct 12.7 19:40:38 10° WSW 19:44:16 16° W 19:48:09 10° NW visible
26 Oct 12.9 05:04:26 10° ENE 05:07:59 14° E 05:11:31 10° ESE visible
26 Oct 10.4 06:46:13 10° NNE 06:54:05 75° ESE 07:01:50 10° S visible
26 Oct 11.0 18:42:51 10° S 18:48:32 46° W 18:55:00 10° NNW visible
27 Oct 11.9 05:51:58 10° NNE 05:58:52 33° E 06:05:38 10° SSE visible
27 Oct 12.5 19:35:15 10° SW 19:39:18 18° W 19:43:40 10° NW visible
28 Oct 13.0 05:00:07 10° ENE 05:03:07 12° E 05:06:05 10° ESE visible
28 Oct 10.5 06:41:26 10° NNE 06:49:18 71° ESE 06:56:59 10° S visible
28 Oct 10.8 18:37:46 10° S 18:43:37 50° W 18:50:17 10° NNW visible
29 Oct 11.9 05:47:16 10° NNE 05:54:03 31° E 06:00:38 10° SSE visible
29 Oct 12.4 19:29:56 10° SW 19:34:21 20° W 19:39:09 10° NW visible
30 Oct 13.0 04:55:59 10° ENE 04:58:14 11° E 05:00:27 10° E visible
30 Oct 10.6 06:36:40 10° NNE 06:44:32 67° E 06:52:07 10° S visible
30 Oct 10.7 18:32:42 10° S 18:38:43 54° W 18:45:35 10° NNW visible
31 Oct 12.0 05:42:36 10° NE 05:49:13 29° E 05:55:36 10° SSE visible
31 Oct 12.3 19:24:39 10° SW 19:29:24 22° W 19:34:36 10° NW visible
